Regional Weather Roundup
Issued by NWS

Home | Current Version | Previous Version | Text Only | Print | Product List | Glossary On
Versions: 1 2 3 4 5 6 7 8 9 10 11 12 13 14 15 16 17 18 19 20 21 22 23 24 25 26 27 28 29 30 31 32 33 34 35 36 37 38 39 40 41 42 43 44 45 46 47 48 49 50
000
ASUS44 KOUN 270110
RWROK

WEATHER ROUNDUP FOR OKLAHOMA
NATIONAL WEATHER SERVICE NORMAN OK
700 PM CST MON JAN 26 2015

NOTE: "FAIR" INDICATES FEW OR NO CLOUDS BELOW 12,000 FEET WITH NO
      SIGNIFICANT WEATHER AND/OR OBSTRUCTIONS TO VISIBILITY.

OKZ001>007-009>012-014-015-017-270200-
NORTHWEST OKLAHOMA AND THE PANHANDLE

CITY           SKY/WX    TMP DP  RH WIND       PRES   REMARKS
GAGE           CLEAR     57  30  35 W5        30.11R
ENID/WOODRING  CLEAR     57  34  41 NW6       30.04R
$$

OKZ016-021>023-033>039-044-045-270200-
SOUTHWEST OKLAHOMA

CITY           SKY/WX    TMP DP  RH WIND       PRES   REMARKS
LAWTON/REGL    CLEAR     57  34  41 CALM      30.06R
LAWTON/FT SILL CLEAR     64  35  33 NW5       30.05S
FREDERICK      CLEAR     60  36  40 N7        30.05R
CLINTON        CLEAR     63  35  35 W6        30.12R
HOBART         PTCLDY    57  37  47 N9        30.09R
ALTUS AFB      CLEAR     65  34  32 NW8       30.09R
$$

OKZ018>020-024>031-270200-
CENTRAL OKLAHOMA

CITY           SKY/WX    TMP DP  RH WIND       PRES   REMARKS
OKLAHOMA CITY  PTCLDY    58  33  39 CALM      30.06R
OKC/WILEY POST CLEAR     62  34  35 CALM      30.06R
OKC/TINKER AFB CLEAR     64  33  32 NW5       30.05R
STILLWATER     CLEAR     60  34  37 NW3       30.03R
GUTHRIE        CLEAR     56  34  43 S3        30.04R
$$

OKZ008-013-054>072-270200-
NORTHEAST OKLAHOMA

CITY           SKY/WX    TMP DP  RH WIND       PRES   REMARKS
TULSA          CLEAR     64  36  35 W5        30.00S
TULSA/JONES    CLEAR     53  36  52 CALM      30.02R
PONCA CITY     CLEAR     60  35  39 NW5       30.03R
BARTLESVILLE   CLEAR     46  35  65 CALM      30.02R
MUSKOGEE       CLEAR     59  34  39 W5        30.03R
$$

OKZ032-040>043-046>053-073>077-270200-
SOUTH CENTRAL/SOUTHEAST OKLAHOMA

CITY           SKY/WX    TMP DP  RH WIND       PRES   REMARKS
ARDMORE/DWNTWN CLEAR     61  36  39 CALM      30.05S
MCALESTER      CLEAR     53  37  54 CALM      30.03R
$$



USA.gov is the U.S. government's official web portal to all federal, state and local government web resources and services.